www.pogodaiklimat.ru

Погода и климат >> Архив погоды >> Иран >> Ahwaz


ПОГОДА в Ahwaz

  • Прогноз погоды в Ahwaz
  • Монитор погоды в Ahwaz
  • Климат города

АРХИВ ПОГОДЫ в Ahwaz

Время (UTC), дата Ветер
(напр.,м/с)
 
Видим.   Явления Облачность Т
(С)
Тd
(С)
f
(%)
Тe
(С)
Тes
(С)
Комфортность P
(гПа)
Po
(гПа)
Тmin
(С)
Tmax
(С)
R
(мм)
R24
(мм)
S
(см)
12 17.11 СЗ 2 10 км ясно +26.3 +8.1 32 +26 +29 жарко 1015.7 1013.2
15 17.11 СЗ 1 10 км ясно +19.5 +7.5 46 +21 +21 комфорт 1016.5 1013.9 +27.2
18 17.11 СВ 1 10 км ясно +17.2 +8.9 58 +18 +18 1017.5 1014.9
21 17.11 Ю 1 7000 м мгла ясно +14.2 +7.5 64 +15 +15 1017.5 1014.9
00 18.11 штиль 0 6000 м мгла ясно +11.6 +7.7 77 +11 +11 1017.5 1014.9
03 18.11 С 1 6000 м мгла 1/0
[Ci fib]
+11.6 +9.0 84 +11 +11 1018.3 1015.6 +11.3
06 18.11 штиль 0 4000 м мгла ясно +17.6 +9.0 57 +18 +23 1020.7 1018.1
09 18.11 З 2 6000 м мгла ясно +25.3 +9.6 37 +26 +34 жарко 1019.7 1017.1
12 18.11 З 1 7000 м мгла ясно +26.6 +8.1 31 +27 +30 жарко 1018.0 1015.5
15 18.11 ЮЗ 1 8000 м мгла 3/0
[Ci fib]
+18.6 +7.4 48 +20 +20 1018.4 1015.8 +27.5
18 18.11 штиль 0 8000 м мгла ясно +16.0 +8.7 62 +16 +16 1019.4 1016.7
21 18.11 штиль 0 6000 м мгла 4/0
[Ci fib]
+13.7 +6.5 62 +13 +13 1019.4 1016.8
00 19.11 З 1 6000 м мгла ясно +13.0 +8.1 72 +13 +13 1018.8 1016.2
03 19.11 штиль 0 3000 м мгла 5/1 1200 м
[Sc diur, vesp Ac trans]
+12.4 +8.1 75 +12 +12 1019.2 1016.6 +12.1
06 19.11 В 2 4000 м мгла 9/0
[Cs]
+19.5 +7.3 45 +21 +24 комфорт 1020.5 1017.9
09 19.11 Ю 1 6000 м мгла 9/0
[Cs]
+26.4 +6.4 28 +26 +34 жарко 1019.3 1016.7
12 19.11 ЮВ 2 7000 м мгла 10/3 1200 м
[Sc Ac trans Cs]
+25.8 +5.9 28 +25 +26 комфорт 1018.1 1015.5
15 19.11 ЮВ 1 7000 м мгла 8/0
[Ac trans Cs]
+20.3 +7.4 43 +22 +22 комфорт 1018.2 1015.6 +27.0
18 19.11 В 1 10 км 5/0
[Ac trans]
+17.7 +7.7 52 +19 +19 1019.1 1016.5
21 19.11 СВ 1 10 км ясно +15.6 +7.6 59 +16 +16 1018.8 1016.3
00 20.11 СВ 1 10 км ясно +13.1 +8.2 72 +13 +13 1018.3 1015.7
03 20.11 В 1 7000 м мгла 6/3 1200 м
[Sc Ac trans]
+13.8 +8.4 70 +14 +14 1018.4 1015.8 +12.0
06 20.11 В 2 6000 м мгла 8/0
[Ac trans Cs]
+20.4 +11.9 58 +23 +26 комфорт 1019.5 1016.9
09 20.11 ЮВ 2 8000 м мгла 3/0
[Ci fib]
+27.5 +11.9 38 +29 +36 жарко 1017.6 1015.0
12 20.11 ЮЗ 1 10 км 10/3 1200 м
[Sc As trans]
+28.3 +11.4 35 +29 +30 жарко 1015.5 1012.9
15 20.11 штиль 0 10 км 8/3 1200 м
[Sc Ac As]
+22.6 +11.7 50 +25 +25 комфорт 1015.6 1013.0 +29.8
18 20.11 ЮВ 1 10 км 5/0
[Ac trans Cs]
+20.0 +10.7 55 +23 +23 комфорт 1015.9 1013.3
21 20.11 ЮВ 2 10 км 8/0
[Ac trans Cs]
+18.8 +8.7 52 +20 +20 1015.2 1012.6
00 21.11 В 2 10 км 9/0
[Ac trans Cs]
+18.7 +12.3 66 +20 +20 1014.3 1011.8
03 21.11 В 2 7000 м мгла 9/1 1200 м
[Sc As trans Cs]
+18.7 +13.1 70 +20 +20 1014.3 1011.7 +17.8
06 21.11 ЮВ 2 2000 м пыль 9/8 750 м
[Cb cap As trans]
+22.6 +13.2 55 +26 +26 жарко 1014.2 1011.7
09 21.11 ЮВ 9 200 м пыльный позёмок {туман} ?/? +21.5 +14.9 66 +25 +25 комфорт 1014.2 1011.6
12 21.11 ЮВ 8 5000 м слабый дождь {ливн. осадки} 10/8 900 м
[Cb cap As op]
+19.2 +15.1 77 +20 +20 1013.6 1011.0 0.1
15 21.11 ЮВ 5 6000 м дождь 10/9 900 м
[Cb cap As op]
+17.2 +15.2 88 +17 +17 1013.4 1010.8 +23.5
18 21.11 В 2 10 км ясно +17.2 +14.5 84 +18 +18 1012.9 1010.4 0.3
21 21.11 В 1 10 км 3/3 1200 м
[Sc diur, vesp]
+17.0 +14.3 84 +18 +18 1012.5 1009.9
00 22.11 В 1 10 км ясно +15.0 +13.7 92 +15 +15 1011.4 1008.8
03 22.11 ЮВ 1 10 км зарница 10/0
[Ac As]
+16.0 +12.5 80 +17 +17 1010.7 1008.1 +15.0
06 22.11 СВ 2 10 км 9/9 750 м
[Cb calv]
+17.4 +14.9 85 +18 +18 1012.4 1009.8 0.1
09 22.11 В 5 8000 м в посл. час ливневой дождь 9/9 900 м
[Cb calv]
+21.0 +15.3 70 +24 +25 комфорт 1011.8 1009.2
12 22.11 ЮВ 5 7000 м слабый ливневой дождь 8/8 900 м
[Cb calv]
+22.0 +15.9 68 +26 +26 душно 1010.3 1007.8 0.0
15 22.11 Ю 4 7000 м дымка {ливн. осадки, дождь} 8/8 900 м
[Cu Sc]
+19.6 +16.3 81 +22 +22 комфорт 1011.7 1009.1 +22.6
18 22.11 ЮВ 2 10 км {ливн. осадки} ясно +17.0 +13.1 78 +17 +17 1012.6 1010.0 1
21 22.11 ЮЗ 2 10 км 6/6 1200 м
[Sc]
+16.3 +14.8 91 +16 +16 1013.1 1010.5
00 23.11 З 1 7000 м дымка 3/0
[Ac trans]
+15.0 +13.9 93 +15 +15 1013.5 1010.9
03 23.11 штиль 0 4000 м дымка 3/3 1050 м
[Sc diur, vesp]
+12.6 +12.0 96 +12 +12 1013.9 1011.3 +12.6
06 23.11 З 3 8000 м мгла ясно +17.2 +8.9 58 +17 +20 1015.5 1012.9
09 23.11 З 3 10 км 1/1 1200 м
[Cu hum]
+20.6 +7.1 42 +22 +28 комфорт 1015.2 1012.6
12 23.11 СЗ 3 10 км 4/4 1050 м
[Cu hum]
+20.4 +5.2 37 +21 +23 комфорт 1014.9 1012.3
15 23.11 штиль 0 10 км ясно +15.8 +6.7 55 +16 +16 1015.5 1012.8 +21.5
18 23.11 Ю 1 10 км ясно +12.3 +7.1 71 +12 +12 1016.5 1013.9
21 23.11 З 1 7000 м дымка ясно +10.6 +7.5 81 +10 +10 1017.0 1014.4
00 24.11 штиль 0 7000 м мгла ясно +8.5 +4.9 78 +8 +8 1017.5 1014.9
03 24.11 штиль 0 4000 м мгла 4/1 1200 м
[Sc diur, vesp Ac trans]
+8.0 +4.4 78 +7 +7 1018.7 1016.0 +7.3
06 24.11 СВ 1 2500 м мгла 9/3 1200 м
[Sc Ac As Cs]
+16.2 +7.7 57 +17 +19 1019.7 1017.0

 

Местоположение метеостанции Ahwaz (Иран): широта 31.33 долгота 48.67 высота над уровнем моря 22 м.

В архиве по умолчанию представлена погода в Ahwaz за последнюю неделю. Архивные данные за месяц целиком и за предыдущие месяцы, начиная с января 2011 года, Вы можете получить, выбрав интересующий диапазон дат из раскрывающегося списка и нажав кнопку "Ввод!".

Внимание! Время в таблицах - всемирное. Для получения местного времени необходимо прибавить поправку, которая в Ahwaz равна 3.5 ч.

Смотрите также архив погоды в соседних городах и на ближайших метеорологических станциях:

Погода в Masjed-Soleyman (Иран) (92 км)
Погода в Safi-Abad Dezful (Иран) (107 км)
Погода в Omidieh (Иран) (114 км)
Погода в Abadan (Иран) (114 км)
Погода в Basrah (Ирак) (120 км)
Погода в Basrah Airport (Ирак) (124 км)
Погода в Fao (Ирак) (151 км)
Погода в Amarah (Ирак) (153 км)
Погода в Abdaly (Кувейт) (167 км)
Погода в Bubiyan (Кувейт) (176 км)

Пояснения к столбцам:

Ветер - указаны скорость ветра в м/с - средняя за 10 мин, порывы в срок и между сроками (в фигурных скобках) и направление, откуда дует ветер: С - северный, СВ - северо-восточный, В - восточный, ЮВ - юго-восточный, Ю - южный, ЮЗ - юго-западный, З - западный, СЗ - северо-западный.
Видимость - горизонтальная дальность видимости в метрах или километрах. При видимости от 1 до 10 км при отсутствии осадков обычно наблюдается дымка, при ухудшении видимости до 1 км и менее - туман. В сухую погоду видимость может ухудшаться дымом, пылью или мглою.
Явления - указаны атмосферные явления, наблюдавшиеся в срок или в последний час перед сроком; фигурными скобками обозначены явления, наблюдавшиеся между сроками (за 1-3 часа до срока); квадратными скобками обозначены град или гололедные отложения с указанием их диаметра в мм.
Облачность - указаны через наклонную черту общая и нижняя облачность в баллах и высота нижней границы облаков в метрах; квадратными скобками обозначены формы облаков: Ci - перистые, Cs - перисто-слоистые, Cc - перисто-кучевые, Ac - высококучевые, As - высокослоистые, Sc - слоисто-кучевые, Ns - слоисто-дождевые, Cu - кучевые, Cb - кучево-дождевые. Подробнее классификацию облаков см. в Атласе облаков (PDF).
T - Температура воздуха - температура, измеренная на высоте 2 м над землей.
Td - Температура точки росы - температура, при понижении до которой содержащийся в воздухе водяной пар достигнет насыщения.
f - Относительная влажность воздуха - влажноcть воздуха, измеренная на высоте 2 м над землей.
Te - Эффективная температура - температура, которую ощущает одетый по сезону человек в тени. Характеристика душности погоды. При расчете учитывается влияние влажности воздуха и скорости ветра на теплоощущения человека.
Tes - Эффективная температура на солнце - температура, которую ощущает человек, с поправкой на солнечный нагрев. Характеристика знойности погоды. Зависит от высоты солнца над горизонтом, облачности и скорости ветра. Ночью, в пасмурную погоду, а также при ветре 12 м/с и более поправка равна нулю.
P - Атмосферное давление - приведенное к уровню моря атмосферное давление.
Po - Атмосферное давление - измеренное на уровне метеостанции атмосферное давление.
Tmin - Минимальная температура - минимум температуры воздуха на высоте 2 м над землей.
Tmax - Максимальная температура - максимум температуры воздуха на высоте 2 м над землей.
R - Количество осадков - Количество выпавших осадков за период времени, мм. При наведении курсора мыши на число - период времени, за который выпало указанное количество осадков.
R24 - Количество осадков - Количество выпавших осадков за 24 часа, мм.
S - Снежный покров - Высота снежного покрова, см. При наведении курсора мыши на число - состояние снежного покрова и степень покрытия местности в баллах.